LEMUR-2-BRIANDAVIE (43047 NORAD) Tracking and Keplerian Element Data

This shows tracking and keplerian element data for the satellite.

Feedback or suggestion? Click here.




ElementValue
Catalog43047
NameLEMUR-2-BRIANDAVIE
Epoch Orbit1078
Epoch Day45.86110858
Epoch Year2018
RAAN276.9961
Inclination51.639
Eccentricity0.0003255
Argument of Perigee196.6325
Mean Anonmoly163.4553
Mean Motion15.38312321
Decay Rate4.144E-05
L11 43047U 17071L 18045.86110858 .00004144 00000-0 11826-3 0 9993
L22 43047 51.6390 276.9961 0003255 196.6325 163.4553 15.38312321 10783

Live tracking and technical data element details for LEMUR-2-BRIANDAVIE (NORAD 43047). LEMUR-2-BRIANDAVIE can be tracked NOW for your location showing map with azimuth and elevation plus other details from your city location.

Track the satellite on the map from your city or location and see movement details for azimuth, elevation, latitude, longitude, range, height, and movement on the map or in text.







IsCatalogInMostPopularTable: catalog: 43047, numindb: 127
Update: records affected: 1



GetName: 43047 LEMUR-2-BRIANDAVIE

Hit Count: updated at: Fri, 16 Nov 2018 03:58:17 GMT